START_TIME,STEP,MOV.,M6,t_acc.,M7,t_acc.,M19,t_acc.,H36,t_acc.
1979-08-02 12:00:25.920 ,0,0,0.,12.0,0.,12.0,0.,12.0,0.,12.0
1979-08-02 12:00:37.920 ,0,0,0.,12.0,0.,12.0,0.,12.0,0.,12.0
1979-08-02 12:00:49.920 ,1,1,0.,12.0,0.,12.0,0.,12.0,0.,12.0
1979-08-02 12:01:01.920 ,1,1,0.,12.0,0.,12.0,0.,12.0,0.,12.0
1979-08-02 12:01:13.920 ,1,0,0.,12.0,0.,12.0,0.,12.0,0.,12.0
1979-08-02 12:01:25.920 ,1,0,0.,12.0,0.,12.0,0.,12.0,0.,12.0
1979-08-02 12:01:37.920 ,2,1,0.,12.0,0.,12.0,0.,12.0,0.,12.0
1979-08-02 12:01:49.920 ,2,1,0.,12.0,0.,12.0,0.,12.0,0.,12.0
1979-08-02 12:02:01.920 ,2,0,0.,12.0,0.,12.0,0.,12.0,0.,12.0
1979-08-02 12:02:13.920 ,2,0,0.,12.0,0.,12.0,0.,12.0,0.,12.0
1979-08-02 12:02:25.920 ,3,1,0.,12.0,0.,12.0,0.,12.0,0.,12.0
1979-08-02 12:02:37.920 ,3,1,0.,12.0,0.,12.0,0.,12.0,0.,12.0
1979-08-02 12:02:49.920 ,3,0,0.,12.0,0.,12.0,0.,12.0,0.,12.0
1979-08-02 12:03:01.920 ,3,0,0.,12.0,0.,12.0,0.,12.0,0.,12.0
1979-08-02 12:03:13.920 ,4,1,0.,12.0,0.,12.0,0.,12.0,0.,12.0
1979-08-02 12:03:25.920 ,4,1,0.,12.0,0.,12.0,0.,12.0,0.,12.0
1979-08-02 12:03:37.920 ,4,0,0.,12.0,0.,12.0,0.,12.0,0.,12.0
1979-08-02 12:03:49.920 ,4,0,0.,12.0,0.,12.0,0.,12.0,0.,12.0
1979-08-02 12:04:01.920 ,5,1,0.,12.0,0.,12.0,0.,12.0,0.,12.0
1979-08-02 12:04:13.920 ,5,1,0.,12.0,0.,12.0,0.,12.0,0.,12.0
1979-08-02 12:04:25.920 ,5,0,0.,12.0,0.,12.0,0.,12.0,0.,12.0
1979-08-02 12:04:37.920 ,5,0,0.,12.0,0.,12.0,0.,12.0,0.,12.0
1979-08-02 12:04:49.920 ,6,1,0.,12.0,0.,12.0,0.,12.0,0.,12.0
1979-08-02 12:05:01.920 ,6,1,0.,12.0,0.,12.0,0.,12.0,0.,12.0
1979-08-02 12:05:13.920 ,6,0,0.,12.0,0.,12.0,0.,12.0,0.,12.0
1979-08-02 12:05:25.920 ,6,0,0.,12.0,0.,12.0,0.,12.0,0.,12.0
1979-08-02 12:05:37.920 ,7,1,0.,12.0,0.,12.0,0.,12.0,0.,12.0
1979-08-02 12:05:49.920 ,7,1,0.,12.0,0.,12.0,0.,12.0,0.,12.0
1979-08-02 12:06:01.920 ,7,0,0.,12.0,0.,12.0,0.,12.0,0.,12.0
1979-08-02 12:06:13.920 ,7,0,0.,12.0,0.,12.0,0.,12.0,0.,12.0
1979-08-02 12:06:25.920 ,7,1,0.,12.0,0.,12.0,0.,12.0,0.,12.0
1979-08-02 12:06:37.920 ,7,1,0.,12.0,0.,12.0,0.,12.0,0.,12.0
1979-08-02 12:06:49.920 ,7,0,0.,12.0,0.,12.0,0.,12.0,0.,12.0
1979-08-02 12:07:01.920 ,7,0,0.,12.0,0.,12.0,0.,12.0,0.,12.0
1979-08-02 12:07:13.920 ,6,1,0.,12.0,0.,12.0,0.,12.0,0.,12.0
1979-08-02 12:07:25.920 ,6,1,0.,12.0,0.,12.0,0.,12.0,0.,12.0
1979-08-02 12:07:37.920 ,6,0,0.,12.0,0.,12.0,0.,12.0,0.,12.0
1979-08-02 12:07:49.920 ,6,0,0.,12.0,0.,12.0,0.,12.0,0.,12.0
1979-08-02 12:08:01.920 ,5,1,0.,12.0,0.,12.0,0.,12.0,0.,12.0
1979-08-02 12:08:13.920 ,5,1,0.,12.0,0.,12.0,0.,12.0,0.,12.0
1979-08-02 12:08:25.920 ,5,0,0.,12.0,0.,12.0,0.,12.0,0.,12.0
1979-08-02 12:08:37.920 ,5,0,0.,12.0,0.,12.0,0.,12.0,0.,12.0
1979-08-02 12:08:49.920 ,4,1,0.,12.0,0.,12.0,0.,12.0,0.,12.0
1979-08-02 12:09:01.920 ,4,1,0.,12.0,0.,12.0,0.,12.0,0.,12.0
1979-08-02 12:09:13.920 ,4,0,0.,12.0,0.,12.0,0.,12.0,0.,12.0
1979-08-02 12:09:25.920 ,4,0,0.,12.0,0.,12.0,0.,12.0,0.,12.0
1979-08-02 12:09:37.920 ,3,1,0.,12.0,0.,12.0,0.,12.0,0.,12.0
1979-08-02 12:09:49.920 ,3,1,0.,12.0,0.,12.0,0.,12.0,0.,12.0
1979-08-02 12:10:01.920 ,3,0,0.,12.0,0.,12.0,0.,12.0,0.,12.0
1979-08-02 12:10:13.920 ,3,0,0.,12.0,0.,12.0,0.,12.0,0.,12.0
1979-08-02 12:10:25.920 ,2,1,0.,12.0,0.,12.0,0.,12.0,0.,12.0
1979-08-02 12:10:37.920 ,2,1,0.,12.0,0.,12.0,0.,12.0,0.,12.0
1979-08-02 12:10:49.920 ,2,0,0.,12.0,0.,12.0,0.,12.0,0.,12.0
1979-08-02 12:11:01.920 ,2,0,0.,12.0,0.,12.0,0.,12.0,0.,12.0
1979-08-02 12:11:13.920 ,1,1,0.,12.0,0.,12.0,0.,12.0,0.,12.0
1979-08-02 12:11:25.920 ,1,1,0.,12.0,0.,12.0,0.,12.0,0.,12.0
1979-08-02 12:11:37.920 ,1,0,0.,12.0,0.,12.0,0.,12.0,0.,12.0
1979-08-02 12:11:49.920 ,1,0,0.,12.0,0.,12.0,0.,12.0,0.,12.0
1979-08-02 12:12:01.920 ,0,1,0.,12.0,0.,12.0,0.,12.0,0.,12.0
1979-08-02 12:12:13.920 ,0,1,0.,12.0,0.,12.0,0.,12.0,0.,12.0
1979-08-02 12:12:25.920 ,0,0,0.,12.0,0.,12.0,0.,12.0,0.,12.0
1979-08-02 12:12:37.920 ,0,0,0.,12.0,0.,12.0,0.,12.0,0.,12.0
1979-08-02 12:12:49.920 ,0,1,0.,12.0,0.,12.0,0.,12.0,0.,12.0
1979-08-02 12:13:01.920 ,0,1,0.,12.0,0.,12.0,0.,12.0,0.,12.0
1979-08-02 12:13:13.920 ,0,0,0.,12.0,0.,12.0,0.,12.0,0.,12.0
1979-08-02 12:13:25.920 ,0,0,0.,12.0,0.,12.0,0.,12.0,0.,12.0
1979-08-02 12:13:37.910 ,1,1,0.,12.0,0.,12.0,0.,12.0,0.,12.0
1979-08-02 12:13:49.920 ,1,1,0.,12.0,0.,12.0,0.,12.0,0.,12.0
1979-08-02 12:14:01.910 ,1,0,0.,12.0,0.,12.0,0.,12.0,0.,12.0
1979-08-02 12:14:13.920 ,1,0,0.,12.0,0.,12.0,0.,12.0,0.,12.0
1979-08-02 12:14:25.910 ,2,1,0.,12.0,0.,12.0,0.,12.0,0.,12.0
1979-08-02 12:14:37.920 ,2,1,0.,12.0,0.,12.0,0.,12.0,0.,12.0
1979-08-02 12:14:49.910 ,2,0,0.,12.0,0.,12.0,0.,12.0,0.,12.0
1979-08-02 12:15:01.920 ,2,0,0.,12.0,0.,12.0,0.,12.0,0.,12.0
1979-08-02 12:15:13.910 ,3,1,0.,12.0,0.,12.0,0.,12.0,0.,12.0
1979-08-02 12:15:25.920 ,3,1,0.,12.0,0.,12.0,0.,12.0,0.,12.0
1979-08-02 12:15:37.910 ,3,0,0.,12.0,0.,12.0,0.,12.0,0.,12.0
1979-08-02 12:15:49.920 ,3,0,0.,12.0,0.,12.0,0.,12.0,0.,12.0
1979-08-02 12:16:01.910 ,4,1,0.,12.0,0.,12.0,0.,12.0,0.,12.0
1979-08-02 12:16:13.920 ,4,1,0.,12.0,0.,12.0,0.,12.0,0.,12.0
1979-08-02 12:16:25.910 ,4,0,0.,12.0,0.,12.0,0.,12.0,0.,12.0
1979-08-02 12:16:37.920 ,4,0,0.,12.0,0.,12.0,0.,12.0,0.,12.0
1979-08-02 12:16:49.910 ,5,1,0.,12.0,0.,12.0,0.,12.0,0.,12.0
1979-08-02 12:17:01.920 ,5,1,0.,12.0,0.,12.0,0.,12.0,0.,12.0
1979-08-02 12:17:13.910 ,5,0,0.,12.0,0.,12.0,0.,12.0,0.,12.0
1979-08-02 12:17:25.910 ,5,0,0.,12.0,0.,12.0,0.,12.0,0.,12.0
1979-08-02 12:17:37.910 ,6,1,0.,12.0,0.,12.0,0.,12.0,0.,12.0
1979-08-02 12:17:49.910 ,6,1,0.,12.0,0.,12.0,0.,12.0,0.,12.0
1979-08-02 12:18:01.910 ,6,0,0.,12.0,0.,12.0,0.,12.0,0.,12.0
1979-08-02 12:18:13.910 ,6,0,0.,12.0,0.,12.0,0.,12.0,0.,12.0
1979-08-02 12:18:25.910 ,7,0,0.,12.0,0.,12.0,0.,12.0,0.,12.0
1979-08-02 12:18:37.910 ,7,0,0.,12.0,0.,12.0,0.,12.0,0.,12.0
1979-08-02 12:18:49.910 ,7,0,0.,12.0,0.,12.0,0.,12.0,0.,12.0
1979-08-02 12:19:01.910 ,7,0,0.,12.0,0.,12.0,0.,12.0,0.,12.0
1979-08-02 12:19:13.910 ,4,1,0.,12.0,0.,12.0,0.,12.0,0.,12.0
1979-08-02 12:19:25.910 ,4,1,0.,12.0,0.,12.0,0.,12.0,0.,12.0
1979-08-02 12:19:37.910 ,0,1,0.,12.0,0.,12.0,0.,12.0,0.,12.0
1979-08-02 12:19:49.910 ,0,1,0.,12.0,0.,12.0,0.,12.0,0.,12.0
1979-08-02 12:20:01.910 ,3,1,0.,12.0,0.,12.0,0.,12.0,0.,12.0
1979-08-02 12:20:13.910 ,3,1,0.,12.0,0.,12.0,0.,12.0,0.,12.0
1979-08-02 12:20:25.910 ,7,1,0.,12.0,0.,12.0,0.,12.0,0.,12.0
1979-08-02 12:20:37.910 ,7,1,0.,12.0,0.,12.0,0.,12.0,0.,12.0
1979-08-02 12:20:49.910 ,6,1,0.,12.0,0.,12.0,0.,12.0,0.,12.0
1979-08-02 12:21:01.910 ,6,1,,0,,0,,0,,0
1979-08-02 12:21:13.910 ,0,1,0.,12.0,0.,12.0,0.,12.0,0.,12.0
1979-08-02 12:21:25.910 ,0,1,0.,12.0,0.,12.0,0.,12.0,0.,12.0
1979-08-02 12:21:37.910 ,3,1,0.,12.0,0.,12.0,0.,12.0,0.,12.0
1979-08-02 12:21:49.910 ,3,1,0.,12.0,0.,12.0,0.,12.0,0.,12.0
1979-08-02 12:22:01.910 ,7,1,0.,12.0,0.,12.0,0.,12.0,0.,12.0
1979-08-02 12:22:13.910 ,7,1,0.,12.0,0.,12.0,0.,12.0,0.,12.0
1979-08-02 12:22:25.910 ,4,1,0.,12.0,0.,12.0,0.,12.0,0.,12.0
1979-08-02 12:22:37.910 ,4,1,0.,12.0,0.,12.0,0.,12.0,0.,12.0
1979-08-02 12:22:49.910 ,0,1,0.,12.0,0.,12.0,0.,12.0,0.,12.0
1979-08-02 12:23:01.910 ,0,1,0.,12.0,0.,12.0,0.,12.0,0.,12.0
1979-08-02 12:23:13.910 ,3,1,0.,12.0,0.,12.0,0.,12.0,0.,12.0
1979-08-02 12:23:25.910 ,3,1,0.,12.0,0.,12.0,0.,12.0,0.,12.0
1979-08-02 12:23:37.910 ,7,1,0.,12.0,0.,12.0,0.,12.0,0.,12.0
1979-08-02 12:23:49.910 ,7,1,0.,12.0,0.,12.0,0.,12.0,0.,12.0
1979-08-02 12:24:01.910 ,4,1,0.,12.0,0.,12.0,0.,12.0,0.,12.0
1979-08-02 12:24:13.910 ,4,1,0.,12.0,0.,12.0,0.,12.0,0.,12.0
1979-08-02 12:24:25.910 ,0,1,0.,12.0,0.,12.0,0.,12.0,0.,12.0
1979-08-02 12:24:37.910 ,0,1,0.,12.0,0.,12.0,0.,12.0,0.,12.0
1979-08-02 12:24:49.910 ,3,1,0.,12.0,0.,12.0,0.,12.0,0.,12.0
1979-08-02 12:25:01.910 ,3,1,0.,12.0,0.,12.0,0.,12.0,0.,12.0
1979-08-02 12:25:13.910 ,7,1,0.,12.0,0.,12.0,0.,12.0,0.,12.0
1979-08-02 12:25:25.910 ,7,1,0.,12.0,0.,12.0,0.,12.0,0.,12.0
1979-08-02 12:25:37.910 ,4,1,0.,12.0,0.,12.0,0.,12.0,0.,12.0
1979-08-02 12:25:49.910 ,4,1,0.,12.0,0.,12.0,0.,12.0,0.,12.0
1979-08-02 12:26:01.910 ,0,1,0.,12.0,0.,12.0,0.,12.0,0.,12.0
1979-08-02 12:26:13.910 ,0,1,0.,12.0,0.,12.0,0.,12.0,0.,12.0
1979-08-02 12:26:25.910 ,3,1,0.,12.0,0.,12.0,0.,12.0,0.,12.0
1979-08-02 12:26:37.910 ,3,1,0.,12.0,0.,12.0,0.,12.0,0.,12.0
1979-08-02 12:26:49.910 ,7,1,0.,12.0,0.,12.0,0.,12.0,0.,12.0
1979-08-02 12:27:01.910 ,7,1,0.,12.0,0.,12.0,0.,12.0,0.,12.0
1979-08-02 12:27:13.910 ,4,1,0.,12.0,0.,12.0,0.,12.0,0.,12.0
1979-08-02 12:27:25.910 ,4,1,0.,12.0,0.,12.0,0.,12.0,0.,12.0
1979-08-02 12:27:37.910 ,0,1,0.,12.0,0.,12.0,0.,12.0,0.,12.0
1979-08-02 12:27:49.910 ,0,1,0.,12.0,0.,12.0,0.,12.0,0.,12.0
1979-08-02 12:28:01.910 ,3,1,0.,12.0,0.,12.0,0.,12.0,0.,12.0
1979-08-02 12:28:13.910 ,3,1,0.,12.0,0.,12.0,0.,12.0,0.,12.0
1979-08-02 12:28:25.910 ,7,1,0.,12.0,0.,12.0,0.,12.0,0.,12.0
1979-08-02 12:28:37.910 ,7,1,0.,12.0,0.,12.0,0.,12.0,0.,12.0
1979-08-02 12:28:49.910 ,4,1,0.,12.0,0.,12.0,0.,12.0,0.,12.0
1979-08-02 12:29:01.910 ,4,1,0.,12.0,0.,12.0,0.,12.0,0.,12.0
1979-08-02 12:29:13.910 ,0,1,0.,12.0,0.,12.0,0.,12.0,0.,12.0
1979-08-02 12:29:25.910 ,0,1,0.,12.0,0.,12.0,0.,12.0,0.,12.0
1979-08-02 12:29:37.910 ,0,0,0.,12.0,0.,12.0,0.,12.0,0.,12.0
1979-08-02 12:29:49.910 ,0,0,0.,12.0,0.,12.0,0.,12.0,0.,12.0
1979-08-02 12:30:01.910 ,0,0,0.,12.0,0.,12.0,0.,12.0,0.,12.0
1979-08-02 12:30:13.910 ,0,0,1.,12.0,0.,12.0,0.,12.0,0.,12.0
1979-08-02 12:30:25.910 ,5,1,0.,12.0,0.,12.0,0.,12.0,0.,12.0
1979-08-02 12:30:37.910 ,5,1,0.,12.0,0.,12.0,0.,12.0,0.,12.0
1979-08-02 12:30:49.910 ,5,0,0.,12.0,0.,12.0,0.,12.0,0.,12.0
1979-08-02 12:31:01.910 ,5,0,0.,12.0,0.,12.0,0.,12.0,0.,12.0
1979-08-02 12:31:13.910 ,4,1,0.,12.0,0.,12.0,0.,12.0,0.,12.0
1979-08-02 12:31:25.910 ,4,1,0.,12.0,0.,12.0,0.,12.0,0.,12.0
1979-08-02 12:31:37.910 ,4,0,0.,12.0,0.,12.0,0.,12.0,0.,12.0
1979-08-02 12:31:49.910 ,4,0,0.,12.0,0.,12.0,0.,12.0,0.,12.0
1979-08-02 12:32:01.910 ,3,1,0.,12.0,0.,12.0,0.,12.0,0.,12.0
1979-08-02 12:32:13.910 ,3,1,0.,12.0,0.,12.0,0.,12.0,0.,12.0
1979-08-02 12:32:25.910 ,3,0,0.,12.0,0.,12.0,0.,12.0,0.,12.0
1979-08-02 12:32:37.910 ,3,0,0.,12.0,0.,12.0,0.,12.0,0.,12.0
1979-08-02 12:33:37.910 ,0,0,,0,,0,,0,,0
1979-08-02 12:33:49.910 ,0,0,0.,12.0,0.,12.0,0.,12.0,0.,12.0
1979-08-02 12:34:01.910 ,0,0,0.,12.0,0.,12.0,0.,12.0,0.,12.0
1979-08-02 12:34:13.910 ,0,0,0.,12.0,0.,12.0,0.,12.0,0.,12.0
1979-08-02 12:34:25.910 ,0,1,0.,12.0,0.,12.0,0.,12.0,0.,12.0
1979-08-02 12:34:37.910 ,0,1,0.,12.0,0.,12.0,0.,12.0,0.,12.0
1979-08-02 12:34:49.910 ,0,0,0.,12.0,0.,12.0,0.,12.0,0.,12.0
1979-08-02 12:35:01.910 ,0,0,0.,12.0,0.,12.0,0.,12.0,0.,12.0
1979-08-02 12:35:13.910 ,0,1,0.,12.0,0.,12.0,0.,12.0,0.,12.0
1979-08-02 12:35:25.910 ,0,1,0.,12.0,0.,12.0,0.,12.0,0.,12.0
1979-08-02 12:35:37.910 ,0,0,0.,12.0,0.,12.0,0.,12.0,0.,12.0
1979-08-02 12:35:49.910 ,0,0,0.,12.0,0.,12.0,0.,12.0,0.,12.0
1979-08-02 12:36:01.910 ,1,1,0.,12.0,0.,12.0,0.,12.0,0.,12.0
1979-08-02 12:36:13.910 ,1,1,0.,12.0,0.,12.0,0.,12.0,0.,12.0
1979-08-02 12:36:25.910 ,1,0,0.,12.0,0.,12.0,0.,12.0,0.,12.0
1979-08-02 12:36:37.910 ,1,0,0.,12.0,0.,12.0,0.,12.0,0.,12.0
1979-08-02 12:36:49.910 ,2,1,0.,12.0,0.,12.0,0.,12.0,0.,12.0
1979-08-02 12:37:01.910 ,2,1,0.,12.0,0.,12.0,0.,12.0,0.,12.0
1979-08-02 12:37:13.910 ,2,0,0.,12.0,0.,12.0,0.,12.0,0.,12.0
1979-08-02 12:37:25.910 ,2,0,0.,12.0,0.,12.0,0.,12.0,0.,12.0
1979-08-02 12:37:37.910 ,3,1,0.,12.0,0.,12.0,0.,12.0,0.,12.0
1979-08-02 12:37:49.910 ,3,1,0.,12.0,0.,12.0,0.,12.0,0.,12.0
1979-08-02 12:38:01.910 ,3,0,0.,12.0,0.,12.0,0.,12.0,0.,12.0
1979-08-02 12:38:13.910 ,3,0,0.,12.0,0.,12.0,0.,12.0,0.,12.0
1979-08-02 12:38:25.910 ,4,1,0.,12.0,0.,12.0,0.,12.0,0.,12.0
1979-08-02 12:38:37.910 ,4,1,0.,12.0,0.,12.0,0.,12.0,0.,12.0
1979-08-02 12:38:49.910 ,4,0,0.,12.0,0.,12.0,0.,12.0,0.,12.0
1979-08-02 12:39:01.910 ,4,0,0.,12.0,0.,12.0,0.,12.0,0.,12.0
1979-08-02 12:39:13.910 ,5,1,0.,12.0,0.,12.0,0.,12.0,0.,12.0
1979-08-02 12:39:25.910 ,5,1,0.,12.0,0.,12.0,0.,12.0,0.,12.0
1979-08-02 12:39:37.910 ,5,0,0.,12.0,0.,12.0,0.,12.0,0.,12.0
1979-08-02 12:39:49.910 ,5,0,0.,12.0,0.,12.0,0.,12.0,0.,12.0
1979-08-02 12:40:01.910 ,6,1,0.,12.0,0.,12.0,0.,12.0,0.,12.0
1979-08-02 12:40:13.910 ,6,1,0.,12.0,0.,12.0,0.,12.0,0.,12.0
1979-08-02 12:40:25.910 ,6,0,0.,12.0,0.,12.0,0.,12.0,0.,12.0
1979-08-02 12:40:37.910 ,6,0,0.,12.0,0.,12.0,0.,12.0,0.,12.0
1979-08-02 12:40:49.910 ,7,1,0.,12.0,0.,12.0,0.,12.0,0.,12.0
1979-08-02 12:41:01.910 ,7,1,0.,12.0,0.,12.0,0.,12.0,0.,12.0
1979-08-02 12:41:13.910 ,7,0,0.,12.0,0.,12.0,0.,12.0,0.,12.0
1979-08-02 12:41:25.910 ,7,0,0.,12.0,0.,12.0,0.,12.0,0.,12.0
1979-08-02 12:41:37.910 ,7,1,0.,12.0,0.,12.0,0.,12.0,0.,12.0
1979-08-02 12:41:49.910 ,7,1,0.,12.0,0.,12.0,0.,12.0,0.,12.0
1979-08-02 12:42:01.910 ,7,0,0.,12.0,0.,12.0,0.,12.0,0.,12.0
1979-08-02 12:42:13.910 ,7,0,0.,12.0,0.,12.0,0.,12.0,0.,12.0
1979-08-02 12:42:25.910 ,6,1,0.,12.0,0.,12.0,0.,12.0,0.,12.0
1979-08-02 12:42:37.910 ,6,1,0.,12.0,0.,12.0,0.,12.0,0.,12.0
1979-08-02 12:42:49.910 ,6,0,0.,12.0,0.,12.0,0.,12.0,0.,12.0
1979-08-02 12:43:01.910 ,6,0,0.,12.0,0.,12.0,0.,12.0,0.,12.0
1979-08-02 12:43:13.910 ,5,1,0.,12.0,0.,12.0,0.,12.0,0.,12.0
1979-08-02 12:43:25.910 ,5,1,0.,12.0,0.,12.0,0.,12.0,0.,12.0
1979-08-02 12:43:37.910 ,5,0,0.,12.0,0.,12.0,0.,12.0,0.,12.0
1979-08-02 12:43:49.910 ,5,0,0.,12.0,0.,12.0,0.,12.0,0.,12.0
1979-08-02 12:44:01.910 ,4,1,0.,12.0,0.,12.0,0.,12.0,0.,12.0
1979-08-02 12:44:13.910 ,4,1,0.,12.0,0.,12.0,0.,12.0,0.,12.0
1979-08-02 12:44:25.910 ,4,0,0.,12.0,0.,12.0,0.,12.0,0.,12.0
1979-08-02 12:44:37.910 ,4,0,0.,12.0,0.,12.0,0.,12.0,0.,12.0
1979-08-02 12:44:49.910 ,3,1,0.,12.0,0.,12.0,0.,12.0,0.,12.0
1979-08-02 12:45:01.910 ,3,1,0.,12.0,0.,12.0,0.,12.0,0.,12.0
1979-08-02 12:45:13.910 ,3,0,0.,12.0,0.,12.0,0.,12.0,0.,12.0
1979-08-02 12:45:25.910 ,3,0,0.,12.0,0.,12.0,0.,12.0,0.,12.0
1979-08-02 12:45:37.910 ,2,1,0.,12.0,0.,12.0,0.,12.0,0.,12.0
1979-08-02 12:45:49.910 ,2,1,0.,12.0,0.,12.0,0.,12.0,0.,12.0
1979-08-02 12:46:01.910 ,2,0,0.,12.0,0.,12.0,0.,12.0,0.,12.0
1979-08-02 12:46:13.910 ,2,0,0.,12.0,0.,12.0,0.,12.0,0.,12.0
1979-08-02 12:46:25.910 ,1,1,0.,12.0,0.,12.0,0.,12.0,0.,12.0
1979-08-02 12:46:37.910 ,1,1,0.,12.0,0.,12.0,0.,12.0,0.,12.0
1979-08-02 12:46:49.910 ,1,0,0.,12.0,0.,12.0,0.,12.0,0.,12.0
1979-08-02 12:47:01.910 ,1,0,0.,12.0,0.,12.0,0.,12.0,0.,12.0
1979-08-02 12:47:13.910 ,0,1,0.,12.0,0.,12.0,0.,12.0,0.,12.0
1979-08-02 12:47:25.910 ,0,1,0.,12.0,0.,12.0,0.,12.0,0.,12.0
1979-08-02 12:47:37.910 ,0,0,0.,12.0,0.,12.0,0.,12.0,0.,12.0
1979-08-02 12:47:49.910 ,0,0,0.,12.0,0.,12.0,0.,12.0,0.,12.0
1979-08-02 12:48:01.910 ,0,1,0.,12.0,0.,12.0,0.,12.0,0.,12.0
1979-08-02 12:48:13.910 ,0,1,0.,12.0,0.,12.0,0.,12.0,0.,12.0
1979-08-02 12:48:25.910 ,0,0,0.,12.0,0.,12.0,0.,12.0,0.,12.0
1979-08-02 12:48:37.910 ,0,0,0.,12.0,0.,12.0,0.,12.0,0.,12.0
1979-08-02 12:48:49.910 ,1,1,0.,12.0,0.,12.0,0.,12.0,0.,12.0
1979-08-02 12:49:01.910 ,1,1,0.,12.0,0.,12.0,0.,12.0,0.,12.0
1979-08-02 12:49:13.910 ,1,0,0.,12.0,0.,12.0,0.,12.0,0.,12.0
1979-08-02 12:49:25.910 ,1,0,0.,12.0,0.,12.0,0.,12.0,0.,12.0
1979-08-02 12:49:37.910 ,2,1,0.,12.0,0.,12.0,0.,12.0,0.,12.0
1979-08-02 12:49:49.910 ,2,1,0.,12.0,0.,12.0,0.,12.0,0.,12.0
1979-08-02 12:50:01.910 ,2,0,0.,12.0,0.,12.0,0.,12.0,0.,12.0
1979-08-02 12:50:13.910 ,2,0,0.,12.0,0.,12.0,0.,12.0,0.,12.0
1979-08-02 12:50:25.910 ,3,1,0.,12.0,0.,12.0,0.,12.0,0.,12.0
1979-08-02 12:50:37.910 ,3,1,0.,12.0,0.,12.0,0.,12.0,0.,12.0
1979-08-02 12:50:49.910 ,3,0,0.,12.0,0.,12.0,0.,12.0,0.,12.0
1979-08-02 12:51:01.910 ,3,0,0.,12.0,0.,12.0,0.,12.0,0.,12.0
1979-08-02 12:51:13.910 ,4,1,0.,12.0,0.,12.0,0.,12.0,0.,12.0
1979-08-02 12:51:25.910 ,4,1,0.,12.0,0.,12.0,0.,12.0,0.,12.0
1979-08-02 12:51:37.910 ,4,0,0.,12.0,0.,12.0,0.,12.0,0.,12.0
1979-08-02 12:51:49.910 ,4,0,0.,12.0,0.,12.0,0.,12.0,0.,12.0
1979-08-02 12:52:01.910 ,5,1,0.,12.0,0.,12.0,0.,12.0,0.,12.0
1979-08-02 12:52:13.910 ,5,1,0.,12.0,0.,12.0,0.,12.0,0.,12.0
1979-08-02 12:52:25.910 ,5,0,0.,12.0,0.,12.0,0.,12.0,0.,12.0
1979-08-02 12:52:37.910 ,5,0,0.,12.0,0.,12.0,0.,12.0,0.,12.0
1979-08-02 12:52:49.910 ,5,0,0.,12.0,0.,12.0,0.,12.0,0.,12.0
1979-08-02 12:53:01.910 ,5,0,,0,,0,,0,,0
1979-08-02 12:53:13.910 ,6,0,1.,12.0,0.,12.0,0.,12.0,0.,12.0
1979-08-02 12:53:25.910 ,6,0,0.,12.0,0.,12.0,0.,12.0,0.,12.0
1979-08-02 12:53:37.910 ,7,1,0.,12.0,0.,12.0,0.,12.0,0.,12.0
1979-08-02 12:53:49.910 ,7,1,0.,12.0,0.,12.0,0.,12.0,0.,12.0
1979-08-02 12:54:01.910 ,7,0,0.,12.0,0.,12.0,0.,12.0,0.,12.0
1979-08-02 12:54:13.910 ,7,0,0.,12.0,0.,12.0,0.,12.0,0.,12.0
1979-08-02 12:54:25.910 ,7,1,0.,12.0,0.,12.0,0.,12.0,0.,12.0
1979-08-02 12:54:37.910 ,7,1,0.,12.0,0.,12.0,0.,12.0,0.,12.0
1979-08-02 12:54:49.910 ,7,0,0.,12.0,0.,12.0,0.,12.0,0.,12.0
1979-08-02 12:55:01.910 ,7,0,0.,12.0,0.,12.0,0.,12.0,0.,12.0
1979-08-02 12:55:13.910 ,6,1,0.,12.0,0.,12.0,0.,12.0,0.,12.0
1979-08-02 12:55:25.910 ,6,1,0.,12.0,0.,12.0,0.,12.0,0.,12.0
1979-08-02 12:55:37.910 ,6,0,0.,12.0,0.,12.0,0.,12.0,0.,12.0
1979-08-02 12:55:49.910 ,6,0,0.,12.0,0.,12.0,0.,12.0,0.,12.0
1979-08-02 12:56:01.910 ,5,1,0.,12.0,0.,12.0,0.,12.0,0.,12.0
1979-08-02 12:56:13.910 ,5,1,0.,12.0,0.,12.0,0.,12.0,0.,12.0
1979-08-02 12:56:25.910 ,5,0,0.,12.0,0.,12.0,0.,12.0,0.,12.0
1979-08-02 12:56:37.910 ,5,0,0.,12.0,0.,12.0,0.,12.0,0.,12.0
1979-08-02 12:56:49.910 ,4,1,0.,12.0,0.,12.0,0.,12.0,0.,12.0
1979-08-02 12:57:01.910 ,4,1,0.,12.0,0.,12.0,0.,12.0,0.,12.0
1979-08-02 12:57:13.910 ,4,0,0.,12.0,0.,12.0,0.,12.0,0.,12.0
1979-08-02 12:57:25.910 ,4,0,0.,12.0,0.,12.0,0.,12.0,0.,12.0
1979-08-02 12:57:37.910 ,3,1,0.,12.0,0.,12.0,0.,12.0,0.,12.0
1979-08-02 12:57:49.910 ,3,1,0.,12.0,0.,12.0,0.,12.0,0.,12.0
1979-08-02 12:58:01.910 ,3,0,0.,12.0,0.,12.0,0.,12.0,0.,12.0
1979-08-02 12:58:13.910 ,3,0,0.,12.0,0.,12.0,0.,12.0,0.,12.0
1979-08-02 12:58:25.910 ,2,1,0.,12.0,0.,12.0,0.,12.0,0.,12.0
1979-08-02 12:58:37.910 ,2,1,0.,12.0,0.,12.0,0.,12.0,0.,12.0
1979-08-02 12:58:49.910 ,2,0,0.,12.0,0.,12.0,0.,12.0,0.,12.0
1979-08-02 12:59:01.910 ,2,0,0.,12.0,0.,12.0,0.,12.0,0.,12.0
1979-08-02 12:59:13.910 ,1,1,0.,12.0,0.,12.0,0.,12.0,0.,12.0
1979-08-02 12:59:25.910 ,1,1,0.,12.0,0.,12.0,0.,12.0,0.,12.0
1979-08-02 12:59:37.910 ,1,0,0.,12.0,0.,12.0,0.,12.0,1.,12.0
1979-08-02 12:59:49.910 ,1,0,0.,12.0,0.,12.0,0.,12.0,0.,12.0
1979-08-02 13:00:01.910 ,0,1,0.,12.0,0.,12.0,0.,12.0,0.,12.0
1979-08-02 13:00:13.910 ,0,1,0.,12.0,0.,12.0,0.,12.0,0.,12.0
1979-08-02 13:00:25.910 ,0,0,0.,12.0,0.,12.0,0.,12.0,0.,12.0
1979-08-02 13:00:37.910 ,0,0,0.,12.0,0.,12.0,0.,12.0,0.,12.0
1979-08-02 13:00:49.910 ,0,1,0.,12.0,0.,12.0,0.,12.0,0.,12.0
1979-08-02 13:01:01.910 ,0,1,0.,12.0,0.,12.0,0.,12.0,0.,12.0
1979-08-02 13:01:13.910 ,0,0,0.,12.0,0.,12.0,0.,12.0,0.,12.0
1979-08-02 13:01:25.910 ,0,0,0.,12.0,0.,12.0,0.,12.0,0.,12.0
1979-08-02 13:01:37.910 ,1,1,0.,12.0,0.,12.0,0.,12.0,0.,12.0
1979-08-02 13:01:49.910 ,1,1,0.,12.0,0.,12.0,0.,12.0,0.,12.0
1979-08-02 13:02:01.910 ,1,0,0.,12.0,0.,12.0,0.,12.0,0.,12.0
1979-08-02 13:02:13.910 ,1,0,0.,12.0,0.,12.0,0.,12.0,0.,12.0
1979-08-02 13:02:25.910 ,2,1,0.,12.0,0.,12.0,0.,12.0,0.,12.0
1979-08-02 13:02:37.910 ,2,1,0.,12.0,0.,12.0,0.,12.0,0.,12.0
1979-08-02 13:02:49.910 ,2,0,0.,12.0,0.,12.0,0.,12.0,0.,12.0
1979-08-02 13:03:01.910 ,2,0,0.,12.0,0.,12.0,0.,12.0,0.,12.0
1979-08-02 13:03:13.910 ,3,1,0.,12.0,0.,12.0,0.,12.0,0.,12.0
1979-08-02 13:03:25.910 ,3,1,0.,12.0,0.,12.0,0.,12.0,0.,12.0
1979-08-02 13:03:37.910 ,3,0,0.,12.0,0.,12.0,0.,12.0,0.,12.0
1979-08-02 13:03:49.910 ,3,0,0.,12.0,0.,12.0,0.,12.0,0.,12.0
1979-08-02 13:04:01.910 ,4,1,0.,12.0,0.,12.0,0.,12.0,0.,12.0
1979-08-02 13:04:13.910 ,4,1,0.,12.0,0.,12.0,0.,12.0,0.,12.0
1979-08-02 13:04:25.910 ,4,0,0.,12.0,0.,12.0,0.,12.0,0.,12.0
1979-08-02 13:04:37.910 ,4,0,0.,12.0,0.,12.0,0.,12.0,0.,12.0
1979-08-02 13:04:49.910 ,5,1,0.,12.0,0.,12.0,0.,12.0,0.,12.0
1979-08-02 13:05:01.910 ,5,1,0.,12.0,0.,12.0,0.,12.0,0.,12.0
1979-08-02 13:05:13.910 ,5,0,0.,12.0,0.,12.0,0.,12.0,0.,12.0
1979-08-02 13:05:25.910 ,5,0,0.,12.0,0.,12.0,0.,12.0,0.,12.0
1979-08-02 13:05:37.910 ,6,1,0.,12.0,0.,12.0,0.,12.0,0.,12.0
1979-08-02 13:05:49.910 ,6,1,0.,12.0,0.,12.0,0.,12.0,0.,12.0
1979-08-02 13:06:01.910 ,6,0,0.,12.0,0.,12.0,0.,12.0,0.,12.0
1979-08-02 13:06:13.910 ,6,0,0.,12.0,0.,12.0,0.,12.0,0.,12.0
1979-08-02 13:06:25.910 ,7,0,0.,12.0,0.,12.0,0.,12.0,0.,12.0
1979-08-02 13:06:37.910 ,7,0,0.,12.0,0.,12.0,0.,12.0,0.,12.0
1979-08-02 13:06:49.910 ,7,0,0.,12.0,0.,12.0,0.,12.0,0.,12.0
1979-08-02 13:07:01.910 ,7,0,0.,12.0,0.,12.0,0.,12.0,0.,12.0
1979-08-02 13:07:13.910 ,4,1,0.,12.0,0.,12.0,0.,12.0,0.,12.0
1979-08-02 13:07:25.910 ,4,1,0.,12.0,0.,12.0,0.,12.0,0.,12.0
1979-08-02 13:07:37.910 ,0,1,0.,12.0,0.,12.0,0.,12.0,0.,12.0
1979-08-02 13:07:49.910 ,0,1,0.,12.0,0.,12.0,0.,12.0,0.,12.0
1979-08-02 13:08:01.910 ,3,1,0.,12.0,0.,12.0,0.,12.0,0.,12.0
1979-08-02 13:08:13.910 ,3,1,0.,12.0,0.,12.0,0.,12.0,0.,12.0
1979-08-02 13:08:25.910 ,7,1,0.,12.0,0.,12.0,0.,12.0,0.,12.0
1979-08-02 13:08:37.910 ,7,1,0.,12.0,0.,12.0,0.,12.0,0.,12.0
1979-08-02 13:08:49.910 ,4,1,0.,12.0,0.,12.0,0.,12.0,0.,12.0
1979-08-02 13:09:01.910 ,4,1,0.,12.0,0.,12.0,0.,12.0,0.,12.0
1979-08-02 13:09:13.910 ,0,1,0.,12.0,0.,12.0,0.,12.0,0.,12.0
1979-08-02 13:09:25.910 ,0,1,0.,12.0,0.,12.0,0.,12.0,0.,12.0
1979-08-02 13:09:37.910 ,3,1,0.,12.0,0.,12.0,0.,12.0,0.,12.0
1979-08-02 13:09:49.910 ,3,1,0.,12.0,0.,12.0,0.,12.0,0.,12.0
1979-08-02 13:10:01.910 ,7,1,0.,12.0,0.,12.0,0.,12.0,0.,12.0
1979-08-02 13:10:13.910 ,7,1,0.,12.0,0.,12.0,0.,12.0,0.,12.0
1979-08-02 13:10:25.910 ,4,1,0.,12.0,0.,12.0,0.,12.0,0.,12.0
1979-08-02 13:10:37.910 ,4,1,0.,12.0,0.,12.0,0.,12.0,0.,12.0
1979-08-02 13:10:49.910 ,0,1,0.,12.0,0.,12.0,0.,12.0,0.,12.0
1979-08-02 13:11:01.910 ,0,1,0.,12.0,0.,12.0,0.,12.0,0.,12.0
1979-08-02 13:11:13.910 ,3,1,0.,12.0,0.,12.0,0.,12.0,0.,12.0
1979-08-02 13:11:25.910 ,3,1,0.,12.0,0.,12.0,0.,12.0,0.,12.0
1979-08-02 13:11:37.910 ,7,1,0.,12.0,0.,12.0,0.,12.0,0.,12.0
1979-08-02 13:11:49.910 ,7,1,0.,12.0,0.,12.0,0.,12.0,0.,12.0
1979-08-02 13:12:01.910 ,4,1,0.,12.0,0.,12.0,0.,12.0,0.,12.0
1979-08-02 13:12:13.910 ,4,1,0.,12.0,0.,12.0,0.,12.0,0.,12.0
1979-08-02 13:12:25.910 ,0,1,0.,12.0,0.,12.0,0.,12.0,0.,12.0
1979-08-02 13:12:37.910 ,0,1,0.,12.0,0.,12.0,0.,12.0,0.,12.0
1979-08-02 13:12:49.910 ,3,1,0.,12.0,0.,12.0,0.,12.0,0.,12.0
1979-08-02 13:13:01.910 ,3,1,0.,12.0,0.,12.0,0.,12.0,0.,12.0
1979-08-02 13:13:13.910 ,7,1,0.,12.0,0.,12.0,0.,12.0,0.,12.0
1979-08-02 13:13:25.910 ,7,1,0.,12.0,0.,12.0,0.,12.0,0.,12.0
1979-08-02 13:13:37.910 ,4,1,0.,12.0,0.,12.0,0.,12.0,0.,12.0
1979-08-02 13:13:49.910 ,4,1,0.,12.0,0.,12.0,0.,12.0,0.,12.0
1979-08-02 13:14:01.910 ,0,1,0.,12.0,0.,12.0,0.,12.0,0.,12.0
1979-08-02 13:14:13.910 ,0,1,0.,12.0,0.,12.0,0.,12.0,0.,12.0
1979-08-02 13:14:25.910 ,3,1,0.,12.0,0.,12.0,0.,12.0,0.,12.0
1979-08-02 13:14:37.910 ,3,1,0.,12.0,0.,12.0,0.,12.0,0.,12.0
1979-08-02 13:14:49.910 ,7,1,0.,12.0,0.,12.0,0.,12.0,0.,12.0
1979-08-02 13:15:01.910 ,7,1,0.,12.0,0.,12.0,0.,12.0,0.,12.0
1979-08-02 13:15:13.910 ,4,1,0.,12.0,0.,12.0,0.,12.0,0.,12.0
1979-08-02 13:15:25.910 ,4,1,0.,12.0,0.,12.0,0.,12.0,0.,12.0
1979-08-02 13:15:37.910 ,0,1,0.,12.0,0.,12.0,0.,12.0,0.,12.0
1979-08-02 13:15:49.910 ,0,1,0.,12.0,0.,12.0,0.,12.0,0.,12.0
1979-08-02 13:16:01.910 ,3,1,0.,12.0,0.,12.0,0.,12.0,0.,12.0
1979-08-02 13:16:13.910 ,3,1,0.,12.0,0.,12.0,0.,12.0,0.,12.0
1979-08-02 13:16:25.910 ,7,1,0.,12.0,0.,12.0,0.,12.0,0.,12.0
1979-08-02 13:16:37.910 ,7,1,0.,12.0,0.,12.0,0.,12.0,0.,12.0
1979-08-02 13:16:49.910 ,4,1,0.,12.0,0.,12.0,0.,12.0,0.,12.0
1979-08-02 13:17:01.910 ,4,1,0.,12.0,0.,12.0,0.,12.0,0.,12.0
1979-08-02 13:17:13.910 ,0,1,0.,12.0,0.,12.0,0.,12.0,0.,12.0
1979-08-02 13:17:25.910 ,0,1,0.,12.0,0.,12.0,0.,12.0,0.,12.0
1979-08-02 13:17:37.910 ,0,0,0.,12.0,0.,12.0,0.,12.0,0.,12.0
1979-08-02 13:17:49.910 ,0,0,0.,12.0,0.,12.0,0.,12.0,0.,12.0
1979-08-02 13:18:01.910 ,0,0,0.,12.0,0.,12.0,0.,12.0,0.,12.0
1979-08-02 13:18:13.910 ,0,0,0.,12.0,0.,12.0,0.,12.0,0.,12.0
1979-08-02 13:18:25.910 ,5,1,0.,12.0,0.,12.0,0.,12.0,0.,12.0